Time,TemperatureF,DewpointF,PressureIn,WindDirection,WindDirectionDegrees,WindSpeedMPH,WindSpeedGustMPH,Humidity,HourlyPrecipIn,Conditions,Clouds,dailyrainin,SoftwareType,DateUTC
2013-07-05 00:04:00,69.8,49.2,29.61,South,175,0.0,0.0,48,0.00,,---,0.00,VWS V14.00,2013-07-05 06:04:00,
2013-07-05 00:09:00,69.7,49.2,29.61,South,175,0.0,0.0,48,0.00,,---,0.00,VWS V14.00,2013-07-05 06:09:00,
2013-07-05 00:14:00,69.5,49.0,29.61,South,175,0.0,0.0,48,0.00,,---,0.00,VWS V14.00,2013-07-05 06:14:00,
2013-07-05 00:19:00,69.3,49.3,29.61,South,175,0.0,0.0,49,0.00,,---,0.00,VWS V14.00,2013-07-05 06:19:00,
2013-07-05 00:24:00,69.1,49.2,29.61,South,175,0.0,0.0,49,0.00,,---,0.00,VWS V14.00,2013-07-05 06:24:00,
2013-07-05 00:29:00,69.0,49.1,29.60,South,175,0.0,0.0,49,0.00,,---,0.00,VWS V14.00,2013-07-05 06:29:00,
2013-07-05 00:34:00,68.9,49.5,29.60,South,175,0.0,0.0,50,0.00,,---,0.00,VWS V14.00,2013-07-05 06:34:00,
2013-07-05 00:40:00,68.7,49.3,29.60,South,175,0.0,0.0,50,0.00,,---,0.00,VWS V14.00,2013-07-05 06:40:00,
2013-07-05 00:45:00,68.4,49.6,29.60,South,175,0.0,0.0,51,0.00,,---,0.00,VWS V14.00,2013-07-05 06:45:00,
2013-07-05 00:50:00,68.2,49.4,29.61,South,175,0.0,0.0,51,0.00,,---,0.00,VWS V14.00,2013-07-05 06:50:00,
2013-07-05 00:55:00,68.1,49.8,29.61,South,175,0.0,0.0,52,0.00,,---,0.00,VWS V14.00,2013-07-05 06:55:00,
2013-07-05 01:00:00,67.9,49.7,29.61,South,175,0.0,0.0,52,0.00,,---,0.00,VWS V14.00,2013-07-05 07:00:00,
2013-07-05 01:05:00,67.7,49.5,29.60,South,175,0.0,0.0,52,0.00,,---,0.00,VWS V14.00,2013-07-05 07:05:00,
2013-07-05 01:10:00,67.6,49.9,29.60,South,175,0.0,0.0,53,0.00,,---,0.00,VWS V14.00,2013-07-05 07:10:00,
2013-07-05 01:15:00,67.4,49.7,29.61,South,175,0.0,0.0,53,0.00,,---,0.00,VWS V14.00,2013-07-05 07:15:00,
2013-07-05 01:20:00,67.2,50.0,29.60,South,175,0.0,0.0,54,0.00,,---,0.00,VWS V14.00,2013-07-05 07:20:00,
2013-07-05 01:25:00,67.1,49.9,29.60,South,175,0.0,0.0,54,0.00,,---,0.00,VWS V14.00,2013-07-05 07:25:00,
2013-07-05 01:30:00,67.0,49.8,29.61,South,175,0.0,0.0,54,0.00,,---,0.00,VWS V14.00,2013-07-05 07:30:00,
2013-07-05 01:35:00,66.9,49.7,29.61,South,175,0.0,0.0,54,0.00,,---,0.00,VWS V14.00,2013-07-05 07:35:00,
2013-07-05 01:40:00,66.8,49.6,29.61,South,175,0.0,0.0,54,0.00,,---,0.00,VWS V14.00,2013-07-05 07:40:00,
2013-07-05 01:45:00,66.6,49.5,29.61,South,175,0.0,0.0,54,0.00,,---,0.00,VWS V14.00,2013-07-05 07:45:00,
2013-07-05 01:50:00,66.5,49.8,29.61,South,175,0.0,0.0,55,0.00,,---,0.00,VWS V14.00,2013-07-05 07:50:00,
2013-07-05 01:55:00,66.4,49.8,29.61,South,175,0.0,0.0,55,0.00,,---,0.00,VWS V14.00,2013-07-05 07:55:00,
2013-07-05 02:00:00,66.3,49.7,29.61,South,175,0.0,0.0,55,0.00,,---,0.00,VWS V14.00,2013-07-05 08:00:00,
2013-07-05 02:05:00,66.1,50.0,29.61,South,175,0.0,0.0,56,0.00,,---,0.00,VWS V14.00,2013-07-05 08:05:00,
2013-07-05 02:11:00,65.9,50.2,29.61,South,175,0.0,0.0,57,0.00,,---,0.00,VWS V14.00,2013-07-05 08:11:00,
2013-07-05 02:16:00,65.7,50.1,29.61,South,175,0.0,0.0,57,0.00,,---,0.00,VWS V14.00,2013-07-05 08:16:00,
2013-07-05 02:21:00,65.5,50.3,29.61,South,175,0.0,0.0,58,0.00,,---,0.00,VWS V14.00,2013-07-05 08:21:00,
2013-07-05 02:26:00,65.4,50.2,29.61,South,175,0.0,0.0,58,0.00,,---,0.00,VWS V14.00,2013-07-05 08:26:00,
2013-07-05 02:31:00,65.3,50.2,29.60,South,175,0.0,0.0,58,0.00,,---,0.00,VWS V14.00,2013-07-05 08:31:00,
2013-07-05 02:36:00,65.5,50.3,29.60,South,175,0.0,1.0,58,0.00,,---,0.00,VWS V14.00,2013-07-05 08:36:00,
2013-07-05 02:41:00,65.6,50.0,29.60,South,175,1.0,1.0,57,0.00,,---,0.00,VWS V14.00,2013-07-05 08:41:00,
2013-07-05 02:46:00,65.9,50.2,29.60,South,178,0.0,0.0,57,0.00,,---,0.00,VWS V14.00,2013-07-05 08:46:00,
2013-07-05 02:51:00,66.1,50.0,29.60,South,178,0.0,0.0,56,0.00,,---,0.00,VWS V14.00,2013-07-05 08:51:00,
2013-07-05 02:56:00,66.2,50.1,29.60,South,178,1.0,2.0,56,0.00,,---,0.00,VWS V14.00,2013-07-05 08:56:00,
2013-07-05 03:01:00,66.2,50.1,29.60,South,178,0.0,1.0,56,0.00,,---,0.00,VWS V14.00,2013-07-05 09:01:00,
2013-07-05 03:06:00,66.2,49.6,29.60,South,178,0.0,0.0,55,0.00,,---,0.00,VWS V14.00,2013-07-05 09:06:00,
2013-07-05 03:11:00,66.1,49.5,29.60,South,178,0.0,0.0,55,0.00,,---,0.00,VWS V14.00,2013-07-05 09:11:00,
2013-07-05 03:16:00,65.9,49.8,29.60,South,178,0.0,0.0,56,0.00,,---,0.00,VWS V14.00,2013-07-05 09:16:00,
2013-07-05 03:21:00,65.8,49.7,29.60,South,178,0.0,0.0,56,0.00,,---,0.00,VWS V14.00,2013-07-05 09:21:00,
2013-07-05 03:26:00,65.7,49.6,29.60,South,178,0.0,0.0,56,0.00,,---,0.00,VWS V14.00,2013-07-05 09:26:00,
2013-07-05 03:31:00,65.6,49.5,29.60,South,178,0.0,0.0,56,0.00,,---,0.00,VWS V14.00,2013-07-05 09:31:00,
2013-07-05 03:36:00,65.4,48.8,29.60,South,178,0.0,0.0,55,0.00,,---,0.00,VWS V14.00,2013-07-05 09:36:00,
2013-07-05 03:41:00,65.3,48.7,29.61,South,178,0.0,0.0,55,0.00,,---,0.00,VWS V14.00,2013-07-05 09:41:00,
2013-07-05 03:47:00,65.1,49.0,29.61,South,178,0.0,0.0,56,0.00,,---,0.00,VWS V14.00,2013-07-05 09:47:00,
2013-07-05 03:53:00,64.8,49.2,29.61,South,178,0.0,1.0,57,0.00,,---,0.00,VWS V14.00,2013-07-05 09:53:00,
2013-07-05 04:00:00,64.7,49.1,29.61,South,178,0.0,0.0,57,0.00,,---,0.00,VWS V14.00,2013-07-05 10:00:00,
2013-07-05 04:05:00,64.5,49.0,29.63,South,178,0.0,0.0,57,0.00,,---,0.00,VWS V14.00,2013-07-05 10:05:00,
2013-07-05 04:10:00,64.4,49.3,29.64,South,178,0.0,0.0,58,0.00,,---,0.00,VWS V14.00,2013-07-05 10:10:00,
2013-07-05 04:15:00,64.3,49.2,29.64,South,178,0.0,0.0,58,0.00,,---,0.00,VWS V14.00,2013-07-05 10:15:00,
2013-07-05 04:20:00,64.2,49.1,29.63,South,178,0.0,0.0,58,0.00,,---,0.00,VWS V14.00,2013-07-05 10:20:00,
2013-07-05 04:25:00,64.1,49.0,29.63,South,178,0.0,0.0,58,0.00,,---,0.00,VWS V14.00,2013-07-05 10:25:00,
2013-07-05 04:30:00,64.0,48.9,29.63,South,178,0.0,0.0,58,0.00,,---,0.00,VWS V14.00,2013-07-05 10:30:00,
2013-07-05 04:35:00,63.9,48.8,29.63,South,178,0.0,0.0,58,0.00,,---,0.00,VWS V14.00,2013-07-05 10:35:00,
2013-07-05 04:40:00,63.8,48.8,29.63,South,178,0.0,0.0,58,0.00,,---,0.00,VWS V14.00,2013-07-05 10:40:00,
2013-07-05 04:45:00,63.8,49.2,29.62,South,178,0.0,0.0,59,0.00,,---,0.00,VWS V14.00,2013-07-05 10:45:00,
2013-07-05 04:50:00,63.8,49.2,29.62,South,178,0.0,0.0,59,0.00,,---,0.00,VWS V14.00,2013-07-05 10:50:00,
2013-07-05 04:55:00,63.8,49.2,29.62,South,178,0.0,0.0,59,0.00,,---,0.00,VWS V14.00,2013-07-05 10:55:00,
2013-07-05 05:00:00,63.8,49.2,29.62,South,178,0.0,0.0,59,0.00,,---,0.00,VWS V14.00,2013-07-05 11:00:00,
2013-07-05 05:05:00,63.9,48.8,29.64,South,178,1.0,2.0,58,0.00,,---,0.00,VWS V14.00,2013-07-05 11:05:00,
2013-07-05 05:10:00,64.5,49.0,29.63,South,181,1.0,3.0,57,0.00,,---,0.00,VWS V14.00,2013-07-05 11:10:00,
2013-07-05 05:15:00,65.0,48.9,29.63,South,173,0.0,5.0,56,0.00,,---,0.00,VWS V14.00,2013-07-05 11:15:00,
2013-07-05 05:20:00,65.4,48.8,29.62,South,172,0.0,1.0,55,0.00,,---,0.00,VWS V14.00,2013-07-05 11:20:00,
2013-07-05 05:25:00,65.6,49.0,29.62,South,173,0.0,0.0,55,0.00,,---,0.00,VWS V14.00,2013-07-05 11:25:00,
2013-07-05 05:30:00,65.7,49.1,29.62,South,172,0.0,0.0,55,0.00,,---,0.00,VWS V14.00,2013-07-05 11:30:00,
2013-07-05 05:35:00,65.7,49.1,29.62,South,172,0.0,0.0,55,0.00,,---,0.00,VWS V14.00,2013-07-05 11:35:00,
2013-07-05 05:40:00,65.6,49.0,29.63,South,173,0.0,0.0,55,0.00,,---,0.00,VWS V14.00,2013-07-05 11:40:00,
2013-07-05 05:45:00,65.6,49.5,29.63,South,172,0.0,1.0,56,0.00,,---,0.00,VWS V14.00,2013-07-05 11:45:00,
2013-07-05 05:51:00,65.7,49.1,29.64,South,176,0.0,0.0,55,0.00,,---,0.00,VWS V14.00,2013-07-05 11:51:00,
2013-07-05 05:56:00,65.7,49.6,29.64,South,176,0.0,0.0,56,0.00,,---,0.00,VWS V14.00,2013-07-05 11:56:00,
2013-07-05 06:01:00,65.8,49.7,29.64,SW,217,0.0,5.0,56,0.00,,---,0.00,VWS V14.00,2013-07-05 12:01:00,
2013-07-05 06:06:00,65.9,50.2,29.65,SW,221,0.0,0.0,57,0.00,,---,0.00,VWS V14.00,2013-07-05 12:06:00,
2013-07-05 06:12:00,65.7,51.5,29.65,SW,220,0.0,2.0,60,0.00,,---,0.00,VWS V14.00,2013-07-05 12:12:00,
2013-07-05 06:17:00,65.6,51.4,29.65,SW,219,0.0,0.0,60,0.00,,---,0.00,VWS V14.00,2013-07-05 12:17:00,
2013-07-05 06:22:00,65.6,51.8,29.65,SW,220,0.0,0.0,61,0.00,,---,0.00,VWS V14.00,2013-07-05 12:22:00,
2013-07-05 06:27:00,65.5,51.7,29.65,SW,220,0.0,0.0,61,0.00,,---,0.00,VWS V14.00,2013-07-05 12:27:00,
2013-07-05 06:32:00,65.4,51.6,29.65,SW,220,0.0,1.0,61,0.00,,---,0.00,VWS V14.00,2013-07-05 12:32:00,
2013-07-05 06:37:00,65.3,50.6,29.65,SW,219,0.0,0.0,59,0.00,,---,0.00,VWS V14.00,2013-07-05 12:37:00,
2013-07-05 06:43:00,65.4,50.7,29.65,SW,219,0.0,0.0,59,0.00,,---,0.00,VWS V14.00,2013-07-05 12:43:00,
2013-07-05 06:48:00,65.3,50.6,29.65,SW,220,0.0,0.0,59,0.00,,---,0.00,VWS V14.00,2013-07-05 12:48:00,
2013-07-05 06:53:00,65.4,51.6,29.65,SW,220,0.0,1.0,61,0.00,,---,0.00,VWS V14.00,2013-07-05 12:53:00,
2013-07-05 06:58:00,65.5,52.2,29.65,SW,219,0.0,0.0,62,0.00,,---,0.00,VWS V14.00,2013-07-05 12:58:00,
2013-07-05 07:03:00,65.6,52.2,29.65,SW,220,0.0,0.0,62,0.00,,---,0.00,VWS V14.00,2013-07-05 13:03:00,
2013-07-05 07:08:00,65.6,52.2,29.65,SW,220,0.0,0.0,62,0.00,,---,0.00,VWS V14.00,2013-07-05 13:08:00,
2013-07-05 07:13:00,65.6,52.2,29.65,SW,220,0.0,0.0,62,0.00,,---,0.00,VWS V14.00,2013-07-05 13:13:00,
2013-07-05 07:18:00,65.8,52.9,29.65,SW,219,0.0,0.0,63,0.00,,---,0.00,VWS V14.00,2013-07-05 13:18:00,
2013-07-05 07:23:00,66.1,54.0,29.66,SW,220,0.0,0.0,65,0.00,,---,0.00,VWS V14.00,2013-07-05 13:23:00,
2013-07-05 07:28:00,66.2,54.5,29.66,SW,220,0.0,0.0,66,0.00,,---,0.00,VWS V14.00,2013-07-05 13:28:00,
2013-07-05 07:33:00,66.3,55.0,29.66,SW,219,0.0,1.0,67,0.00,,---,0.00,VWS V14.00,2013-07-05 13:33:00,
2013-07-05 07:38:00,66.3,55.4,29.67,SW,219,0.0,0.0,68,0.00,,---,0.00,VWS V14.00,2013-07-05 13:38:00,
2013-07-05 07:43:00,66.4,55.5,29.67,SW,220,0.0,0.0,68,0.00,,---,0.00,VWS V14.00,2013-07-05 13:43:00,
2013-07-05 07:48:00,67.5,56.6,29.64,SW,220,0.0,0.0,68,0.00,,---,0.00,VWS V14.00,2013-07-05 13:48:00,
2013-07-05 07:53:00,67.7,56.4,29.65,SW,220,0.0,0.0,67,0.00,,---,0.00,VWS V14.00,2013-07-05 13:53:00,
2013-07-05 07:58:00,69.2,55.6,29.65,SW,220,0.0,0.0,62,0.00,,---,0.00,VWS V14.00,2013-07-05 13:58:00,
2013-07-05 08:03:00,70.3,56.7,29.65,SW,220,0.0,0.0,62,0.00,,---,0.00,VWS V14.00,2013-07-05 14:03:00,
2013-07-05 08:09:00,69.4,56.3,29.65,SW,220,0.0,0.0,63,0.00,,---,0.00,VWS V14.00,2013-07-05 14:09:00,
2013-07-05 08:14:00,69.2,56.1,29.66,SW,219,0.0,0.0,63,0.00,,---,0.00,VWS V14.00,2013-07-05 14:14:00,
2013-07-05 08:19:00,68.4,54.9,29.66,SW,219,0.0,0.0,62,0.00,,---,0.00,VWS V14.00,2013-07-05 14:19:00,
2013-07-05 08:24:00,68.2,54.7,29.67,SW,220,0.0,0.0,62,0.00,,---,0.00,VWS V14.00,2013-07-05 14:24:00,
2013-07-05 08:29:00,69.1,54.2,29.65,SW,220,0.0,1.0,59,0.00,,---,0.00,VWS V14.00,2013-07-05 14:29:00,
2013-07-05 08:37:00,71.5,53.5,29.65,SW,220,0.0,0.0,53,0.00,,---,0.00,VWS V14.00,2013-07-05 14:37:00,
2013-07-05 08:42:00,71.0,53.0,29.65,SW,219,0.0,0.0,53,0.00,,---,0.00,VWS V14.00,2013-07-05 14:42:00,
2013-07-05 08:48:00,72.3,54.7,29.65,SW,220,0.0,1.0,54,0.00,,---,0.00,VWS V14.00,2013-07-05 14:48:00,
2013-07-05 08:53:00,72.6,52.4,29.64,SW,220,0.0,0.0,49,0.00,,---,0.00,VWS V14.00,2013-07-05 14:53:00,
2013-07-05 08:58:00,71.8,52.7,29.64,SW,220,0.0,0.0,51,0.00,,---,0.00,VWS V14.00,2013-07-05 14:58:00,
2013-07-05 09:03:00,72.0,52.9,29.66,SW,220,0.0,0.0,51,0.00,,---,0.00,VWS V14.00,2013-07-05 15:03:00,
2013-07-05 09:08:00,73.9,53.0,29.65,SW,220,0.0,0.0,48,0.00,,---,0.00,VWS V14.00,2013-07-05 15:08:00,
2013-07-05 09:13:00,73.5,53.7,29.64,SW,219,1.0,1.0,50,0.00,,---,0.00,VWS V14.00,2013-07-05 15:13:00,
2013-07-05 09:20:00,75.4,53.2,29.63,SW,217,0.0,1.0,46,0.00,,---,0.00,VWS V14.00,2013-07-05 15:20:00,
2013-07-05 09:26:00,76.0,54.3,29.63,SW,217,0.0,0.0,47,0.00,,---,0.00,VWS V14.00,2013-07-05 15:26:00,
2013-07-05 09:31:00,77.1,54.8,29.62,WNW,300,1.0,3.0,46,0.00,,---,0.00,VWS V14.00,2013-07-05 15:31:00,
2013-07-05 09:36:00,77.5,53.3,29.62,NE,39,1.0,3.0,43,0.00,,---,0.00,VWS V14.00,2013-07-05 15:36:00,
2013-07-05 09:41:00,77.5,52.6,29.62,East,82,1.0,3.0,42,0.00,,---,0.00,VWS V14.00,2013-07-05 15:41:00,
2013-07-05 09:46:00,77.5,53.3,29.61,East,80,0.0,1.0,43,0.00,,---,0.00,VWS V14.00,2013-07-05 15:46:00,
2013-07-05 09:52:00,77.2,53.0,29.61,East,80,0.0,1.0,43,0.00,,---,0.00,VWS V14.00,2013-07-05 15:52:00,
2013-07-05 09:57:00,77.5,53.3,29.61,East,80,0.0,2.0,43,0.00,,---,0.00,VWS V14.00,2013-07-05 15:57:00,
2013-07-05 10:02:00,78.7,52.4,29.61,East,80,0.0,1.0,40,0.00,,---,0.00,VWS V14.00,2013-07-05 16:02:00,
2013-07-05 10:07:00,79.5,53.1,29.60,NW,326,1.0,4.0,40,0.00,,---,0.00,VWS V14.00,2013-07-05 16:07:00,
2013-07-05 10:12:00,78.4,52.1,29.60,NNW,331,0.0,0.0,40,0.00,,---,0.00,VWS V14.00,2013-07-05 16:12:00,
2013-07-05 10:17:00,78.1,53.8,29.60,NNW,330,0.0,1.0,43,0.00,,---,0.00,VWS V14.00,2013-07-05 16:17:00,
2013-07-05 10:22:00,79.3,53.6,29.60,North,10,0.0,1.0,41,0.00,,---,0.00,VWS V14.00,2013-07-05 16:22:00,
2013-07-05 10:24:00,79.3,54.9,29.60,North,11,0.0,1.0,43,0.00,,---,0.00,VWS V14.00,2013-07-05 16:24:00,
2013-07-05 10:29:00,79.8,53.4,29.59,NNE,19,0.0,1.0,40,0.00,,---,0.00,VWS V14.00,2013-07-05 16:29:00,
2013-07-05 10:34:00,79.1,52.0,29.59,NNE,19,0.0,3.0,39,0.00,,---,0.00,VWS V14.00,2013-07-05 16:34:00,
2013-07-05 10:39:00,78.9,53.2,29.60,NNE,27,0.0,3.0,41,0.00,,---,0.00,VWS V14.00,2013-07-05 16:39:00,
2013-07-05 10:44:00,79.6,52.5,29.59,NNE,32,0.0,0.0,39,0.00,,---,0.00,VWS V14.00,2013-07-05 16:44:00,
2013-07-05 10:49:00,80.6,53.4,29.58,NNE,32,0.0,0.0,39,0.00,,---,0.00,VWS V14.00,2013-07-05 16:49:00,
2013-07-05 10:54:00,79.7,53.3,29.58,South,169,0.0,0.0,40,0.00,,---,0.00,VWS V14.00,2013-07-05 16:54:00,
2013-07-05 10:59:00,80.3,53.8,29.58,South,169,0.0,0.0,40,0.00,,---,0.00,VWS V14.00,2013-07-05 16:59:00,
2013-07-05 11:04:00,79.7,53.3,29.60,SSE,168,0.0,1.0,40,0.00,,---,0.00,VWS V14.00,2013-07-05 17:04:00,
2013-07-05 11:09:00,81.3,55.4,29.59,SE,129,0.0,0.0,41,0.00,,---,0.00,VWS V14.00,2013-07-05 17:09:00,
2013-07-05 11:14:00,81.3,55.4,29.60,SE,129,0.0,1.0,41,0.00,,---,0.00,VWS V14.00,2013-07-05 17:14:00,
2013-07-05 11:19:00,81.1,55.9,29.60,East,83,1.0,3.0,42,0.00,,---,0.00,VWS V14.00,2013-07-05 17:19:00,
2013-07-05 11:24:00,82.3,53.5,29.59,East,83,0.0,1.0,37,0.00,,---,0.00,VWS V14.00,2013-07-05 17:24:00,
2013-07-05 11:29:00,83.4,55.2,29.59,East,83,0.0,1.0,38,0.00,,---,0.00,VWS V14.00,2013-07-05 17:29:00,
2013-07-05 11:34:00,83.0,54.1,29.58,East,84,0.0,0.0,37,0.00,,---,0.00,VWS V14.00,2013-07-05 17:34:00,
2013-07-05 11:39:00,83.1,53.4,29.58,WNW,290,1.0,1.0,36,0.00,,---,0.00,VWS V14.00,2013-07-05 17:39:00,
2013-07-05 11:44:00,83.0,54.8,29.58,NW,322,2.0,3.0,38,0.00,,---,0.00,VWS V14.00,2013-07-05 17:44:00,
2013-07-05 11:49:00,83.7,54.7,29.58,ENE,75,0.0,1.0,37,0.00,,---,0.00,VWS V14.00,2013-07-05 17:49:00,
2013-07-05 11:55:00,84.4,56.0,29.56,SE,138,0.0,1.0,38,0.00,,---,0.00,VWS V14.00,2013-07-05 17:55:00,
2013-07-05 12:00:00,83.9,53.3,29.57,SE,138,0.0,1.0,35,0.00,,---,0.00,VWS V14.00,2013-07-05 18:00:00,
2013-07-05 12:04:00,84.0,54.2,29.57,SE,138,0.0,1.0,36,0.00,,---,0.00,VWS V14.00,2013-07-05 18:04:00,
2013-07-05 12:09:00,84.2,55.9,29.58,SE,138,0.0,0.0,38,0.00,,---,0.00,VWS V14.00,2013-07-05 18:09:00,
2013-07-05 12:14:00,84.0,54.2,29.58,SE,137,0.0,1.0,36,0.00,,---,0.00,VWS V14.00,2013-07-05 18:14:00,
2013-07-05 12:19:00,84.2,54.4,29.57,East,90,0.0,1.0,36,0.00,,---,0.00,VWS V14.00,2013-07-05 18:19:00,
2013-07-05 12:24:00,84.4,57.5,29.57,East,90,0.0,0.0,40,0.00,,---,0.00,VWS V14.00,2013-07-05 18:24:00,
2013-07-05 12:29:00,84.9,52.6,29.57,East,90,0.0,0.0,33,0.00,,---,0.00,VWS V14.00,2013-07-05 18:29:00,
2013-07-05 12:34:00,85.8,54.2,29.57,East,87,0.0,2.0,34,0.00,,---,0.00,VWS V14.00,2013-07-05 18:34:00,
2013-07-05 12:40:00,87.0,57.6,29.55,East,87,1.0,1.0,37,0.00,,---,0.00,VWS V14.00,2013-07-05 18:40:00,
2013-07-05 12:45:00,86.5,53.2,29.55,ENE,75,3.0,4.0,32,0.00,,---,0.00,VWS V14.00,2013-07-05 18:45:00,
2013-07-05 12:51:00,86.3,53.8,29.55,ESE,105,0.0,1.0,33,0.00,,---,0.00,VWS V14.00,2013-07-05 18:51:00,
2013-07-05 12:56:00,85.8,57.3,29.54,ESE,103,0.0,0.0,38,0.00,,---,0.00,VWS V14.00,2013-07-05 18:56:00,
2013-07-05 13:01:00,86.2,56.9,29.55,ESE,103,0.0,0.0,37,0.00,,---,0.00,VWS V14.00,2013-07-05 19:01:00,
2013-07-05 13:06:00,87.1,53.7,29.56,SSE,165,0.0,0.0,32,0.00,,---,0.00,VWS V14.00,2013-07-05 19:06:00,
2013-07-05 13:11:00,88.6,54.1,29.54,SSE,163,0.0,1.0,31,0.00,,---,0.00,VWS V14.00,2013-07-05 19:11:00,
2013-07-05 13:16:00,88.9,54.4,29.54,SSE,164,0.0,2.0,31,0.00,,---,0.00,VWS V14.00,2013-07-05 19:16:00,
2013-07-05 13:21:00,88.1,54.6,29.54,SSW,202,0.0,1.0,32,0.00,,---,0.00,VWS V14.00,2013-07-05 19:21:00,
2013-07-05 13:26:00,88.0,56.1,29.54,SSW,202,0.0,1.0,34,0.00,,---,0.00,VWS V14.00,2013-07-05 19:26:00,
2013-07-05 13:31:00,88.5,54.9,29.54,SW,221,0.0,2.0,32,0.00,,---,0.00,VWS V14.00,2013-07-05 19:31:00,
2013-07-05 13:36:00,89.1,56.3,29.53,South,169,0.0,2.0,33,0.00,,---,0.00,VWS V14.00,2013-07-05 19:36:00,
2013-07-05 13:41:00,87.8,54.3,29.53,SSE,167,0.0,1.0,32,0.00,,---,0.00,VWS V14.00,2013-07-05 19:41:00,
2013-07-05 13:46:00,88.6,54.1,29.53,NNW,335,0.0,2.0,31,0.00,,---,0.00,VWS V14.00,2013-07-05 19:46:00,
2013-07-05 13:51:00,89.3,54.7,29.53,North,360,0.0,4.0,31,0.00,,---,0.00,VWS V14.00,2013-07-05 19:51:00,
2013-07-05 13:56:00,89.1,53.7,29.53,NNW,345,0.0,3.0,30,0.00,,---,0.00,VWS V14.00,2013-07-05 19:56:00,
2013-07-05 14:01:00,89.8,52.4,29.52,NE,42,2.0,5.0,28,0.00,,---,0.00,VWS V14.00,2013-07-05 20:01:00,
2013-07-05 14:06:00,89.0,56.2,29.53,North,9,3.0,6.0,33,0.00,,---,0.00,VWS V14.00,2013-07-05 20:06:00,
2013-07-05 14:10:00,89.7,53.2,29.52,North,360,0.0,1.0,29,0.00,,---,0.00,VWS V14.00,2013-07-05 20:10:00,
2013-07-05 14:15:00,89.8,56.0,29.51,North,360,0.0,1.0,32,0.00,,---,0.00,VWS V14.00,2013-07-05 20:15:00,
2013-07-05 14:20:00,90.7,57.7,29.51,SSW,213,3.0,3.0,33,0.00,,---,0.00,VWS V14.00,2013-07-05 20:20:00,
2013-07-05 14:25:00,91.4,55.6,29.51,South,190,3.0,6.0,30,0.00,,---,0.00,VWS V14.00,2013-07-05 20:25:00,
2013-07-05 14:30:00,89.3,53.8,29.52,South,184,0.0,2.0,30,0.00,,---,0.00,VWS V14.00,2013-07-05 20:30:00,
2013-07-05 14:35:00,88.2,53.8,29.53,North,10,0.0,4.0,31,0.00,,---,0.00,VWS V14.00,2013-07-05 20:35:00,
2013-07-05 14:40:00,87.3,55.5,29.53,NNE,28,0.0,1.0,34,0.00,,---,0.00,VWS V14.00,2013-07-05 20:40:00,
2013-07-05 14:45:00,86.1,55.3,29.55,SSW,194,7.0,10.0,35,0.00,,---,0.00,VWS V14.00,2013-07-05 20:45:00,
2013-07-05 14:50:00,85.1,55.2,29.56,NW,322,3.0,3.0,36,0.00,,---,0.00,VWS V14.00,2013-07-05 20:50:00,
2013-07-05 14:55:00,85.5,54.0,29.56,SSE,157,0.0,4.0,34,0.00,,---,0.00,VWS V14.00,2013-07-05 20:55:00,
2013-07-05 15:00:00,85.3,55.3,29.56,NNE,24,0.0,0.0,36,0.00,,---,0.00,VWS V14.00,2013-07-05 21:00:00,
2013-07-05 15:05:00,84.8,52.5,29.57,SSE,165,0.0,2.0,33,0.00,,---,0.00,VWS V14.00,2013-07-05 21:05:00,
2013-07-05 15:10:00,84.1,51.9,29.58,NNE,28,3.0,9.0,33,0.00,,---,0.00,VWS V14.00,2013-07-05 21:10:00,
2013-07-05 15:15:00,83.4,52.9,29.57,South,174,3.0,3.0,35,0.00,,---,0.00,VWS V14.00,2013-07-05 21:15:00,
2013-07-05 15:20:00,82.6,53.0,29.57,ENE,63,0.0,2.0,36,0.00,,---,0.00,VWS V14.00,2013-07-05 21:20:00,
2013-07-05 15:25:00,82.1,52.5,29.58,SSE,155,0.0,4.0,36,0.00,,---,0.00,VWS V14.00,2013-07-05 21:25:00,
2013-07-05 15:30:00,81.3,51.8,29.59,SSW,192,0.0,4.0,36,0.00,,---,0.00,VWS V14.00,2013-07-05 21:30:00,
2013-07-05 15:35:00,81.0,53.7,29.58,South,173,4.0,6.0,39,0.00,,---,0.00,VWS V14.00,2013-07-05 21:35:00,
2013-07-05 15:40:00,79.9,54.1,29.58,South,185,0.0,3.0,41,0.00,,---,0.00,VWS V14.00,2013-07-05 21:40:00,
2013-07-05 15:45:00,79.7,53.9,29.58,SSE,161,0.0,0.0,41,0.00,,---,0.00,VWS V14.00,2013-07-05 21:45:00,
2013-07-05 15:50:00,80.8,52.1,29.56,SSE,162,0.0,1.0,37,0.00,,---,0.00,VWS V14.00,2013-07-05 21:50:00,
2013-07-05 15:55:00,81.8,53.7,29.57,SSE,160,0.0,5.0,38,0.00,,---,0.00,VWS V14.00,2013-07-05 21:55:00,
2013-07-05 16:00:00,82.9,54.7,29.56,SE,143,0.0,2.0,38,0.00,,---,0.00,VWS V14.00,2013-07-05 22:00:00,
2013-07-05 16:05:00,83.3,53.6,29.57,WNW,299,2.0,3.0,36,0.00,,---,0.00,VWS V14.00,2013-07-05 22:05:00,
2013-07-05 16:10:00,83.3,52.8,29.57,NW,322,0.0,6.0,35,0.00,,---,0.00,VWS V14.00,2013-07-05 22:10:00,
2013-07-05 16:11:00,83.3,52.8,29.57,NW,322,0.0,1.0,35,0.00,,---,0.00,VWS V14.00,2013-07-05 22:11:00,
2013-07-05 16:16:00,82.9,55.4,29.57,NNW,340,0.0,0.0,39,0.00,,---,0.00,VWS V14.00,2013-07-05 22:16:00,
2013-07-05 16:21:00,82.3,55.6,29.57,NNW,340,0.0,1.0,40,0.00,,---,0.00,VWS V14.00,2013-07-05 22:21:00,
2013-07-05 16:26:00,81.8,55.8,29.57,NNW,340,0.0,0.0,41,0.00,,---,0.00,VWS V14.00,2013-07-05 22:26:00,
2013-07-05 16:31:00,82.3,54.2,29.57,NNW,342,0.0,0.0,38,0.00,,---,0.00,VWS V14.00,2013-07-05 22:31:00,
2013-07-05 16:36:00,82.9,54.0,29.57,NNW,342,0.0,0.0,37,0.00,,---,0.00,VWS V14.00,2013-07-05 22:36:00,
2013-07-05 16:41:00,83.1,55.6,29.57,NNW,342,0.0,0.0,39,0.00,,---,0.00,VWS V14.00,2013-07-05 22:41:00,
2013-07-05 16:46:00,83.2,54.2,29.57,NNW,341,0.0,1.0,37,0.00,,---,0.00,VWS V14.00,2013-07-05 22:46:00,
2013-07-05 16:51:00,83.4,52.9,29.57,NNW,339,0.0,3.0,35,0.00,,---,0.00,VWS V14.00,2013-07-05 22:51:00,
2013-07-05 16:56:00,83.6,53.8,29.57,NNW,346,0.0,1.0,36,0.00,,---,0.00,VWS V14.00,2013-07-05 22:56:00,
2013-07-05 17:01:00,83.6,53.1,29.56,NNW,342,6.0,6.0,35,0.00,,---,0.00,VWS V14.00,2013-07-05 23:01:00,
2013-07-05 17:07:00,83.3,54.3,29.58,NNE,22,2.0,6.0,37,0.00,,---,0.00,VWS V14.00,2013-07-05 23:07:00,
2013-07-05 17:22:00,81.1,54.5,29.61,NW,315,1.0,4.0,40,0.00,,---,0.00,VWS V14.00,2013-07-05 23:22:00,
2013-07-05 17:28:00,80.3,53.8,29.61,NNE,19,1.0,7.0,40,0.00,,---,0.00,VWS V14.00,2013-07-05 23:28:00,
2013-07-05 17:33:00,80.0,54.9,29.61,NW,322,0.0,1.0,42,0.00,,---,0.00,VWS V14.00,2013-07-05 23:33:00,
2013-07-05 17:38:00,79.9,55.4,29.61,NNE,14,0.0,1.0,43,0.00,,---,0.00,VWS V14.00,2013-07-05 23:38:00,
2013-07-05 17:43:00,79.6,55.8,29.60,ENE,61,2.0,7.0,44,0.00,,---,0.00,VWS V14.00,2013-07-05 23:43:00,
2013-07-05 17:48:00,79.1,55.3,29.62,NNW,341,4.0,7.0,44,0.00,,---,0.00,VWS V14.00,2013-07-05 23:48:00,
2013-07-05 17:53:00,78.7,55.0,29.62,NNW,339,7.0,7.0,44,0.00,,---,0.00,VWS V14.00,2013-07-05 23:53:00,
2013-07-05 17:58:00,78.5,54.8,29.62,NE,39,2.0,14.0,44,0.00,,---,0.00,VWS V14.00,2013-07-05 23:58:00,
2013-07-05 18:03:00,78.3,54.6,29.62,NNW,335,2.0,5.0,44,0.00,,---,0.00,VWS V14.00,2013-07-06 00:03:00,
2013-07-05 18:08:00,78.1,54.4,29.62,NE,48,5.0,10.0,44,0.00,,---,0.00,VWS V14.00,2013-07-06 00:08:00,
2013-07-05 18:13:00,77.9,54.3,29.63,NNE,17,0.0,3.0,44,0.00,,---,0.00,VWS V14.00,2013-07-06 00:13:00,
2013-07-05 18:18:00,78.0,54.3,29.63,NNW,338,0.0,4.0,44,0.00,,---,0.00,VWS V14.00,2013-07-06 00:18:00,
2013-07-05 18:23:00,77.8,54.2,29.64,ENE,64,1.0,5.0,44,0.00,,---,0.00,VWS V14.00,2013-07-06 00:23:00,
2013-07-05 18:28:00,77.8,54.2,29.64,East,82,1.0,5.0,44,0.00,,---,0.00,VWS V14.00,2013-07-06 00:28:00,
2013-07-05 18:33:00,77.5,53.9,29.63,North,355,0.0,5.0,44,0.00,,---,0.00,VWS V14.00,2013-07-06 00:33:00,
2013-07-05 18:38:00,77.2,53.6,29.65,NE,35,0.0,2.0,44,0.00,,---,0.00,VWS V14.00,2013-07-06 00:38:00,
2013-07-05 18:39:00,77.2,53.6,29.64,NE,55,0.0,3.0,44,0.00,,---,0.00,VWS V14.00,2013-07-06 00:39:00,
2013-07-05 18:44:00,76.9,54.0,29.64,ENE,73,0.0,1.0,45,0.00,,---,0.00,VWS V14.00,2013-07-06 00:44:00,
2013-07-05 18:49:00,76.6,53.7,29.64,NNW,346,4.0,4.0,45,0.00,,---,0.00,VWS V14.00,2013-07-06 00:49:00,
2013-07-05 18:54:00,76.3,54.0,29.65,NW,318,0.0,0.0,46,0.00,,---,0.00,VWS V14.00,2013-07-06 00:54:00,
2013-07-05 18:59:00,76.1,53.8,29.65,WSW,251,1.0,3.0,46,0.00,,---,0.00,VWS V14.00,2013-07-06 00:59:00,
2013-07-05 19:04:00,76.1,53.8,29.62,ENE,65,2.0,4.0,46,0.00,,---,0.00,VWS V14.00,2013-07-06 01:04:00,
2013-07-05 19:09:00,75.8,55.3,29.62,NW,316,0.0,1.0,49,0.00,,---,0.00,VWS V14.00,2013-07-06 01:09:00,
2013-07-05 19:11:00,75.5,55.6,29.62,NW,316,0.0,0.0,50,0.00,,---,0.00,VWS V14.00,2013-07-06 01:11:00,
2013-07-05 19:16:00,74.7,55.4,29.64,NW,315,0.0,0.0,51,0.00,,---,0.00,VWS V14.00,2013-07-06 01:16:00,
2013-07-05 19:21:00,74.3,56.1,29.65,NW,316,0.0,0.0,53,0.00,,---,0.00,VWS V14.00,2013-07-06 01:21:00,
2013-07-05 19:26:00,73.9,55.7,29.64,NW,316,0.0,0.0,53,0.00,,---,0.00,VWS V14.00,2013-07-06 01:26:00,
2013-07-05 19:31:00,73.6,55.4,29.65,NW,315,0.0,0.0,53,0.00,,---,0.00,VWS V14.00,2013-07-06 01:31:00,
2013-07-05 19:36:00,73.6,54.9,29.65,NW,316,0.0,0.0,52,0.00,,---,0.00,VWS V14.00,2013-07-06 01:36:00,
2013-07-05 19:41:00,73.7,54.5,29.65,NW,316,0.0,0.0,51,0.00,,---,0.00,VWS V14.00,2013-07-06 01:41:00,
2013-07-05 19:46:00,73.8,54.6,29.66,NW,316,0.0,0.0,51,0.00,,---,0.00,VWS V14.00,2013-07-06 01:46:00,
2013-07-05 19:51:00,73.8,54.6,29.67,NW,315,0.0,0.0,51,0.00,,---,0.00,VWS V14.00,2013-07-06 01:51:00,
2013-07-05 19:56:00,73.9,54.7,29.67,NW,316,0.0,0.0,51,0.00,,---,0.00,VWS V14.00,2013-07-06 01:56:00,
2013-07-05 20:01:00,73.9,54.7,29.67,NW,316,0.0,0.0,51,0.00,,---,0.00,VWS V14.00,2013-07-06 02:01:00,
2013-07-05 20:07:00,73.9,54.7,29.67,NW,315,0.0,0.0,51,0.00,,---,0.00,VWS V14.00,2013-07-06 02:07:00,
2013-07-05 20:12:00,73.9,54.7,29.66,NW,316,0.0,0.0,51,0.00,,---,0.00,VWS V14.00,2013-07-06 02:12:00,
2013-07-05 20:15:00,73.9,54.1,29.66,NW,316,0.0,0.0,50,0.00,,---,0.00,VWS V14.00,2013-07-06 02:15:00,
2013-07-05 20:20:00,73.9,54.1,29.66,NW,315,0.0,0.0,50,0.00,,---,0.00,VWS V14.00,2013-07-06 02:20:00,
2013-07-05 20:25:00,74.0,53.7,29.66,NW,315,0.0,0.0,49,0.00,,---,0.00,VWS V14.00,2013-07-06 02:25:00,
2013-07-05 20:30:00,74.0,53.7,29.65,WNW,286,0.0,1.0,49,0.00,,---,0.00,VWS V14.00,2013-07-06 02:30:00,
2013-07-05 20:35:00,74.0,53.1,29.64,WNW,286,0.0,0.0,48,0.00,,---,0.00,VWS V14.00,2013-07-06 02:35:00,
2013-07-05 20:40:00,74.0,53.1,29.64,WNW,286,0.0,1.0,48,0.00,,---,0.00,VWS V14.00,2013-07-06 02:40:00,
2013-07-05 20:45:00,74.1,53.2,29.64,WNW,286,0.0,0.0,48,0.00,,---,0.00,VWS V14.00,2013-07-06 02:45:00,
2013-07-05 20:50:00,74.0,53.7,29.64,SSW,195,2.0,4.0,49,0.00,,---,0.00,VWS V14.00,2013-07-06 02:50:00,
2013-07-05 20:55:00,74.0,53.7,29.64,South,190,2.0,5.0,49,0.00,,---,0.00,VWS V14.00,2013-07-06 02:55:00,
2013-07-05 21:00:00,74.0,54.2,29.64,South,190,0.0,1.0,50,0.00,,---,0.00,VWS V14.00,2013-07-06 03:00:00,
2013-07-05 21:05:00,74.0,54.2,29.61,South,190,1.0,1.0,50,0.00,,---,0.00,VWS V14.00,2013-07-06 03:05:00,
2013-07-05 21:10:00,73.9,54.7,29.61,South,190,1.0,1.0,51,0.00,,---,0.00,VWS V14.00,2013-07-06 03:10:00,
2013-07-05 21:15:00,73.8,54.0,29.61,South,190,0.0,0.0,50,0.00,,---,0.00,VWS V14.00,2013-07-06 03:15:00,
2013-07-05 21:20:00,73.8,54.6,29.61,South,190,0.0,0.0,51,0.00,,---,0.00,VWS V14.00,2013-07-06 03:20:00,
2013-07-05 21:25:00,73.7,53.9,29.61,South,190,0.0,0.0,50,0.00,,---,0.00,VWS V14.00,2013-07-06 03:25:00,
2013-07-05 21:30:00,73.7,54.5,29.62,South,190,0.0,0.0,51,0.00,,---,0.00,VWS V14.00,2013-07-06 03:30:00,
2013-07-05 21:35:00,73.5,54.3,29.62,South,190,0.0,0.0,51,0.00,,---,0.00,VWS V14.00,2013-07-06 03:35:00,
2013-07-05 21:40:00,73.3,54.6,29.63,South,190,0.0,0.0,52,0.00,,---,0.00,VWS V14.00,2013-07-06 03:40:00,
2013-07-05 21:45:00,73.0,54.4,29.64,South,190,0.0,0.0,52,0.00,,---,0.00,VWS V14.00,2013-07-06 03:45:00,
2013-07-05 21:50:00,72.8,54.7,29.64,South,190,0.0,0.0,53,0.00,,---,0.00,VWS V14.00,2013-07-06 03:50:00,
2013-07-05 21:55:00,72.5,54.4,29.64,South,190,0.0,0.0,53,0.00,,---,0.00,VWS V14.00,2013-07-06 03:55:00,
2013-07-05 22:00:00,72.2,54.7,29.64,South,190,0.0,0.0,54,0.00,,---,0.00,VWS V14.00,2013-07-06 04:00:00,
2013-07-05 22:01:00,72.1,54.6,29.63,South,190,0.0,1.0,54,0.00,,---,0.00,VWS V14.00,2013-07-06 04:01:00,
2013-07-05 22:02:00,72.0,54.5,29.63,South,190,0.0,1.0,54,0.00,,---,0.00,VWS V14.00,2013-07-06 04:02:00,
2013-07-05 22:03:00,71.9,54.4,29.63,South,190,0.0,2.0,54,0.00,,---,0.00,VWS V14.00,2013-07-06 04:03:00,
2013-07-05 22:04:00,71.9,54.4,29.63,South,190,0.0,0.0,54,0.00,,---,0.00,VWS V14.00,2013-07-06 04:04:00,
2013-07-05 22:09:00,71.7,54.2,29.63,South,190,0.0,2.0,54,0.00,,---,0.00,VWS V14.00,2013-07-06 04:09:00,
2013-07-05 22:14:00,71.6,54.1,29.62,South,190,0.0,3.0,54,0.00,,---,0.00,VWS V14.00,2013-07-06 04:14:00,
2013-07-05 22:19:00,71.7,54.2,29.62,South,190,0.0,0.0,54,0.00,,---,0.00,VWS V14.00,2013-07-06 04:19:00,
2013-07-05 22:24:00,71.8,54.3,29.62,South,190,0.0,0.0,54,0.00,,---,0.00,VWS V14.00,2013-07-06 04:24:00,
2013-07-05 22:29:00,71.7,54.2,29.62,South,190,0.0,1.0,54,0.00,,---,0.00,VWS V14.00,2013-07-06 04:29:00,
2013-07-05 22:35:00,71.5,54.5,29.62,South,190,0.0,2.0,55,0.00,,---,0.00,VWS V14.00,2013-07-06 04:35:00,
2013-07-05 22:40:00,71.3,54.8,29.62,South,190,3.0,3.0,56,0.00,,---,0.00,VWS V14.00,2013-07-06 04:40:00,
2013-07-05 22:45:00,71.3,55.3,29.62,South,190,0.0,1.0,57,0.00,,---,0.00,VWS V14.00,2013-07-06 04:45:00,
2013-07-05 22:50:00,71.1,55.1,29.62,South,190,0.0,0.0,57,0.00,,---,0.00,VWS V14.00,2013-07-06 04:50:00,
2013-07-05 22:55:00,70.9,55.4,29.62,South,190,0.0,0.0,58,0.00,,---,0.00,VWS V14.00,2013-07-06 04:55:00,
2013-07-05 23:00:00,70.5,55.5,29.60,South,190,0.0,0.0,59,0.00,,---,0.00,VWS V14.00,2013-07-06 05:00:00,
2013-07-05 23:05:00,70.1,55.6,29.59,South,190,0.0,1.0,60,0.00,,---,0.00,VWS V14.00,2013-07-06 05:05:00,
2013-07-05 23:10:00,69.9,55.4,29.59,South,190,0.0,0.0,60,0.00,,---,0.00,VWS V14.00,2013-07-06 05:10:00,
2013-07-05 23:16:00,69.7,55.2,29.59,South,190,0.0,0.0,60,0.00,,---,0.00,VWS V14.00,2013-07-06 05:16:00,
2013-07-05 23:21:00,69.6,55.6,29.59,South,190,0.0,0.0,61,0.00,,---,0.00,VWS V14.00,2013-07-06 05:21:00,
2013-07-05 23:26:00,69.4,55.4,29.60,South,190,0.0,0.0,61,0.00,,---,0.00,VWS V14.00,2013-07-06 05:26:00,
2013-07-05 23:31:00,69.4,55.4,29.60,South,190,0.0,0.0,61,0.00,,---,0.00,VWS V14.00,2013-07-06 05:31:00,
2013-07-05 23:36:00,69.3,55.3,29.60,South,190,0.0,0.0,61,0.00,,---,0.00,VWS V14.00,2013-07-06 05:36:00,
2013-07-05 23:41:00,69.1,55.1,29.59,South,190,0.0,0.0,61,0.00,,---,0.00,VWS V14.00,2013-07-06 05:41:00,
2013-07-05 23:46:00,68.9,54.9,29.59,South,190,0.0,0.0,61,0.00,,---,0.00,VWS V14.00,2013-07-06 05:46:00,
2013-07-05 23:51:00,68.6,54.6,29.59,South,190,0.0,0.0,61,0.00,,---,0.00,VWS V14.00,2013-07-06 05:51:00,
2013-07-05 23:56:00,68.5,55.0,29.59,South,190,0.0,1.0,62,0.00,,---,0.00,VWS V14.00,2013-07-06 05:56:00,